Flag for Russia Weather past 2 weeks in Surgut, Russia

Now
52 °F

Light rain. Low clouds.


Feels Like: 49 °F
Forecast: 51 / 74 °F
Wind: 8 mph from Northeast

Location: Surgut Airport

Current Time: Aug 1, 2014 at 12:13:46 PM

Latest Report: Aug 1, 2014 at 11:30 AM


Visibility: 4 mi

Pressure: 30.12 "Hg

Humidity: 100%

Dew point: 52 °F

Location of SurgutLocation

Historic Weather in Surgut — Graph

°F

Surgut temperature yesterday

Maximum temperature yesterday: 72 °F (at 11:30 AM)
Minimum temperature yesterday: 57 °F (at 1:30 AM)
Average temperature yesterday: 65 °F

Past Weeks' High & Low Weather Summary

 TemperatureHumidityPressure
High75 °F (Jul 21, 5:30 PM)100% (Jul 22, 8:30 AM)30.12 "Hg (Jul 22, 8:30 AM)
Low41 °F (Jul 30, 2:30 AM)38% (Jul 30, 3:30 PM)29.24 "Hg (Jul 24, 5:30 AM)
Average57 °F78%29.63 "Hg
* Reported Jul 17 11:00 AM — Aug 1 11:00 AM, Surgut, Weather by CustomWeather, © 2014

Note: Actual official high and low records may vary slightly from our data, if they occured in-between our weather recording intervals... More about our weather records

Advertising

Surgut weather history for previous 24 hours

 ConditionsComfort  
Time TempWeatherWind HumidityBarometerVisibility
11:00 AM
Aug 1
54 °FLight rain. Low clouds.6 mph94%30.12 "Hg4 mi
10:30 AM54 °FLight rain. Low clouds.13 mph94%30.09 "Hg4 mi
10:00 AM54 °FLight rain. Low clouds.10 mph94%30.09 "Hg4 mi
9:30 AM54 °FLight rain. Low clouds.10 mph94%30.09 "Hg4 mi
9:00 AM54 °FLight rain. Low clouds.13 mph94%30.07 "Hg4 mi
8:30 AM54 °FLight rain. Low clouds.10 mph94%30.07 "Hg4 mi
8:00 AM54 °FLow clouds.8 mph94%30.07 "Hg4 mi
7:30 AM54 °FLow clouds.10 mph94%30.04 "Hg4 mi
7:00 AM54 °FLow clouds.8 mph94%30.04 "Hg4 mi
6:30 AM55 °FLow clouds.10 mph94%30.04 "Hg4 mi
6:00 AM55 °FLow clouds.10 mph94%30.01 "Hg4 mi
5:30 AM55 °FLow clouds.10 mph94%30.01 "Hg4 mi
5:00 AM55 °FLow clouds.8 mph94%30.01 "Hg4 mi
4:30 AM55 °FPassing clouds.8 mph94%29.98 "Hg4 mi
4:00 AM55 °FPassing clouds.6 mph94%29.98 "Hg4 mi
3:30 AM57 °FPassing clouds.8 mph94%29.98 "Hg4 mi
3:00 AM57 °FPassing clouds.10 mph94%29.95 "Hg4 mi
2:30 AM57 °FPassing clouds.8 mph94%29.95 "Hg4 mi
2:00 AM57 °FPassing clouds.8 mph100%29.95 "Hg4 mi
1:30 AM59 °FPassing clouds.8 mph94%29.95 "Hg4 mi
1:00 AM59 °FPassing clouds.8 mph94%29.92 "Hg4 mi
12:30 AM59 °FPassing clouds.10 mph94%29.92 "Hg4 mi
12:00 AM59 °FPassing clouds.10 mph100%29.92 "Hg4 mi
11:30 PM
Jul 31
61 °FPassing clouds.13 mph94%29.92 "Hg4 mi
11:00 PM63 °FPassing clouds.8 mph94%29.89 "Hg4 mi
10:30 PM64 °FPartly sunny.6 mph94%29.89 "Hg4 mi
10:00 PM64 °FPartly sunny.6 mph94%29.89 "Hg4 mi
9:30 PM66 °FPartly sunny.8 mph94%29.86 "Hg4 mi
9:00 PM66 °FPartly sunny.6 mph94%29.86 "Hg4 mi
8:30 PM66 °FPartly sunny.6 mph94%29.86 "Hg4 mi
8:00 PM68 °FPartly sunny.3 mph94%29.86 "Hg4 mi
7:30 PM68 °FPartly sunny.No wind94%29.83 "Hg4 mi
7:00 PM68 °FPartly sunny.1 mph94%29.83 "Hg4 mi
6:30 PM68 °FPartly sunny.1 mph88%29.83 "Hg4 mi
6:00 PM70 °FPartly sunny.1 mph78%29.83 "Hg4 mi
5:30 PM68 °FPartly sunny.1 mph88%29.83 "Hg4 mi
5:00 PM66 °FPartly sunny.No wind94%29.83 "Hg4 mi
4:30 PM66 °FPartly sunny.1 mph94%29.83 "Hg4 mi
4:00 PM66 °FThundershowers. Scattered clouds.8 mph88%29.80 "Hg4 mi
3:30 PM66 °FSprinkles. Scattered clouds.10 mph83%29.80 "Hg4 mi
3:00 PM72 °FScattered clouds.10 mph65%29.80 "Hg4 mi
2:30 PM72 °FPartly sunny.8 mph69%29.80 "Hg4 mi
2:00 PM72 °FBroken clouds.8 mph69%29.80 "Hg4 mi
1:30 PM70 °FBroken clouds.8 mph73%29.80 "Hg4 mi
1:00 PM70 °FPartly sunny.10 mph69%29.77 "Hg4 mi
12:30 PM70 °FBroken clouds.10 mph69%29.77 "Hg4 mi
12:00 PM72 °FBroken clouds.13 mph61%29.77 "Hg4 mi
Weather by CustomWeather, © 2014

See weather overviewHow to use our weather pages